Location: Newark
(42.7133°N, 87.7910°W)
Time: 09:19:52
(UTC+00:00)

Transit 4A - Pass Details

Date: 20 September 2019
Orbit: 867 x 978 km, 66.8° (Epoch: 18 October)

Event Time Altitude Azimuth Distance (km) Brightness Sun altitude
Rises 01:44:57 0° 332° (NNW) 3,603 11.8 -20.7°
Reaches altitude 10° 01:47:37 10° 337° (NNW) 2,638 10.9 -21.1°
Maximum altitude 01:53:34 52° 53° (NE) 1,122 8.1 -22.1°
Enters shadow 01:54:51 44° 92° (E) 1,227 8.1 -22.3°
